Location: Isola Pescaroli
(45.0500°N, 10.1667°E)
Time: 05:51:24
(UTC+00:00)

Cosmos 2322 - Visible Passes

Search period start: 13 June 2021 00:00
Search period end: 23 June 2021 00:00
Orbit: 842 x 853 km, 71.0° (Epoch: 12 June)

Date Brightness Start Highest point End Pass type
(mag) Time Alt. Az. Time Alt. Az. Time Alt. Az.
13 Jun 6.2 00:43:37 10° WNW 00:46:09 13° NW 00:48:41 10° NNW visible
13 Jun 5.0 21:02:10 19° ESE 21:03:43 22° E 21:07:55 10° NE visible
13 Jun 4.1 22:44:03 24° SW 22:47:24 60° WNW 22:53:01 10° NNE visible
14 Jun 6.2 00:30:15 10° WNW 00:32:51 13° NW 00:35:27 10° N visible
14 Jun 5.0 20:48:30 18° SE 20:50:28 21° E 20:54:36 10° NE visible
14 Jun 4.1 22:30:23 21° SW 22:34:08 61° WNW 22:39:45 10° NNE visible
15 Jun 6.2 00:16:53 10° WNW 00:19:33 13° NW 00:22:13 10° N visible
15 Jun 5.0 20:34:43 16° SE 20:37:12 21° E 20:41:17 10° NE visible
15 Jun 4.1 22:16:36 18° SW 22:20:51 62° WNW 22:26:29 10° NNE visible
16 Jun 6.2 00:03:31 10° WNW 00:06:15 13° NW 00:08:59 10° N visible
16 Jun 5.0 20:20:49 13° SE 20:23:55 20° E 20:27:58 10° NE visible
16 Jun 4.1 22:02:41 14° SW 22:07:34 63° WNW 22:13:12 10° NNE visible
16 Jun 6.3 23:50:09 10° WNW 23:52:57 14° NW 23:55:45 10° N visible
17 Jun 5.0 20:06:44 10° SE 20:10:40 20° E 20:14:39 10° NE visible
17 Jun 4.0 21:48:41 10° SW 21:54:17 65° WNW 21:59:56 10° NNE visible
17 Jun 6.3 23:36:47 10° WNW 23:39:39 14° NW 23:42:31 10° N visible
18 Jun 5.0 19:53:28 10° SE 19:57:24 20° E 20:01:21 10° NE visible
18 Jun 4.0 21:35:23 10° SW 21:41:00 66° WNW 21:46:39 10° NNE visible
18 Jun 6.3 23:23:25 10° WNW 23:26:21 14° NW 23:29:16 10° N visible
19 Jun 5.1 19:40:16 10° SE 19:44:08 19° E 19:48:01 10° NE visible
19 Jun 4.0 21:22:06 10° SW 21:27:43 67° WNW 21:33:23 10° NNE visible
19 Jun 6.4 23:10:04 10° WNW 23:13:02 14° NW 23:16:02 10° N visible
20 Jun 4.0 21:08:49 10° SW 21:14:26 68° WNW 21:20:06 10° NNE visible
20 Jun 6.4 22:56:42 10° WNW 22:59:45 14° NW 23:02:48 10° N visible
21 Jun 4.0 20:55:32 10° SW 21:01:09 69° WNW 21:06:50 10° NNE visible
21 Jun 6.4 22:43:21 10° WNW 22:46:26 15° NW 22:49:33 10° N visible
22 Jun 4.0 20:42:15 10° SSW 20:47:53 71° WNW 20:53:32 10° NNE visible
22 Jun 6.5 22:30:00 10° WNW 22:33:08 15° NW 22:36:19 10° N visible
